GW4073 Weather Reports


Display with metric or nautical units.
time (UTC)temp
F
wind
direction
speed
MPH
gust
MPH
rain 1hr
in
rain 24hr
in
rain mn
in
humidity
%
barometer
mb
20260509051544 58 72 5.0 9.0 0.00 0.00 0.00 33 1012.5
20260509051041 58 65 6.0 9.0 0.00 0.00 0.00 33 1012.5
20260509050538 58 54 5.0 9.0 0.00 0.00 0.00 33 1012.4
20260509050034 59 63 7.0 8.0 0.00 0.00 0.00 33 1012.7
20260509045532 59 75 4.0 9.0 0.00 0.00 0.00 32 1012.8
20260509045028 59 53 9.0 10.0 0.00 0.00 0.00 32 1012.4
20260509044526 60 39 6.0 9.0 0.00 0.00 0.00 32 1012.4
20260509044024 60 63 4.0 6.0 0.00 0.00 0.00 32 1012.4
20260509043520 60 78 5.0 8.0 0.00 0.00 0.00 32 1012.3
20260509043016 60 54 4.0 9.0 0.00 0.00 0.00 32 1012.2
20260509042512 60 31 5.0 8.0 0.00 0.00 0.00 32 1012.3
20260509042008 60 70 4.0 6.0 0.00 0.00 0.00 32 1012.3
20260509041505 61 42 7.0 9.0 0.00 0.00 0.00 31 1012.2
20260509041003 61 51 4.0 6.0 0.00 0.00 0.00 31 1012.3
20260509040501 60 46 5.0 6.0 0.00 0.00 0.00 32 1012.1
20260509035957 60 23 2.0 5.0 0.00 0.00 0.00 33 1012.1
20260509035454 60 41 4.0 5.0 0.00 0.00 0.00 33 1011.8
20260509034950 60 61 4.0 4.0 0.00 0.00 0.00 33 1011.8
20260509034449 61 51 2.0 5.0 0.00 0.00 0.00 33 1012.1
20260509033945 61 32 2.0 4.0 0.00 0.00 0.00 33 1011.7
20260509033442 60 73 3.0 3.0 0.00 0.00 0.00 35 1011.5
20260509032939 61 49 2.0 4.0 0.00 0.00 0.00 33 1011.6
20260509032436 61 61 2.0 2.0 0.00 0.00 0.00 34 1011.7
20260509031934 62 18 3.0 3.0 0.00 0.00 0.00 32 1011.6
20260509031431 63 50 2.0 3.0 0.00 0.00 0.00 34 1011.2
20260509030929 63 51 3.0 3.0 0.00 0.00 0.00 33 1011.4
20260509030427 64 43 3.0 3.0 0.00 0.00 0.00 32 1011.2
20260509025923 64 50 2.0 2.0 0.00 0.00 0.00 31 1011.1
20260509025419 65 77 1.0 2.0 0.00 0.00 0.00 31 1011.1
20260509024914 66 41 1.0 2.0 0.00 0.00 0.00 28 1011.2
20260509024411 67 34 2.0 2.0 0.00 0.00 0.00 28 1011.0
20260509023908 68 29 1.0 2.0 0.00 0.00 0.00 29 1010.8
20260509023405 68 2 2.0 2.0 0.00 0.00 0.00 25 1010.9
20260509022901 69 356 1.0 2.0 0.00 0.00 0.00 25 1010.8
20260509022359 70 309 0.0 1.0 0.00 0.00 0.00 23 1010.7
20260509021856 71 326 0.0 3.0 0.00 0.00 0.00 24 1010.7
20260509021352 72 273 3.0 4.0 0.00 0.00 0.00 24 1010.8
20260509020850 72 257 4.0 5.0 0.00 0.00 0.00 23 1010.8
20260509020349 73 282 2.0 7.0 0.00 0.00 0.00 23 1010.7
20260509015845 73 283 2.0 4.0 0.00 0.00 0.00 22 1010.5
20260509015343 73 308 1.0 3.0 0.00 0.00 0.00 22 1010.8
20260509014840 74 288 2.0 6.0 0.00 0.00 0.00 23 1010.3
20260509014337 74 283 0.0 2.0 0.00 0.00 0.00 23 1010.4
20260509013833 75 206 2.0 6.0 0.00 0.00 0.00 22 1010.4
20260509013331 75 277 2.0 4.0 0.00 0.00 0.00 24 1010.4
20260509012826 75 265 2.0 3.0 0.00 0.00 0.00 22 1010.5
20260509012323 75 253 2.0 4.0 0.00 0.00 0.00 22 1010.3
20260509011821 76 189 2.0 5.0 0.00 0.00 0.00 22 1010.4
20260509011318 77 273 2.0 2.0 0.00 0.00 0.00 23 1010.5
20260509010815 77 240 5.0 12.0 0.00 0.00 0.00 20 1010.3
20260509010312 78 286 2.0 4.0 0.00 0.00 0.00 20 1010.5
20260509005809 78 199 2.0 5.0 0.00 0.00 0.00 20 1010.5
20260509005307 79 302 5.0 6.0 0.00 0.00 0.00 19 1010.7
20260509004802 78 312 4.0 5.0 0.00 0.00 0.00 20 1010.9
20260509004259 80 289 2.0 5.0 0.00 0.00 0.00 18 1010.8
20260509003757 81 245 2.0 5.0 0.00 0.00 0.00 20 1010.5
20260509003254 83 279 3.0 4.0 0.00 0.00 0.00 17 1010.8
20260509002751 81 261 2.0 6.0 0.00 0.00 0.00 17 1010.8
20260509002249 81 267 4.0 9.0 0.00 0.00 0.00 18 1010.8
20260509001746 81 277 3.0 15.0 0.00 0.00 0.00 18 1010.9
20260509001241 81 271 3.0 7.0 0.00 0.00 0.00 17 1010.7
20260509000739 81 254 2.0 7.0 0.00 0.00 0.00 18 1010.8
20260509000236 82 189 4.0 8.0 0.00 0.00 0.00 18 1010.7
20260508235733 82 268 4.0 6.0 0.00 0.00 0.00 20 1010.7
20260508235230 82 220 2.0 7.0 0.00 0.00 0.00 19 1010.7
20260508234727 83 298 5.0 6.0 0.00 0.00 0.00 18 1010.8
20260508234223 84 287 3.0 4.0 0.00 0.00 0.00 19 1010.9
20260508233717 83 286 4.0 6.0 0.00 0.00 0.00 19 1010.7
20260508233215 83 267 2.0 6.0 0.00 0.00 0.00 18 1010.8
20260508232712 83 222 4.0 8.0 0.00 0.00 0.00 20 1010.9
20260508232208 82 291 4.0 12.0 0.00 0.00 0.00 20 1010.9
20260508231706 83 296 6.0 11.0 0.00 0.00 0.00 19 1010.4
20260508231203 84 260 7.0 10.0 0.00 0.00 0.00 20 1010.7
20260508230700 84 283 3.0 7.0 0.00 0.00 0.00 21 1010.7
20260508230156 84 200 2.0 6.0 0.00 0.00 0.00 20 1010.7
20260508225654 83 307 4.0 9.0 0.00 0.00 0.00 19 1010.7
20260508225150 84 236 4.0 6.0 0.00 0.00 0.00 20 1010.5
20260508224648 84 277 4.0 10.0 0.00 0.00 0.00 22 1010.7
20260508224145 84 238 7.0 12.0 0.00 0.00 0.00 21 1010.7
20260508223643 86 290 4.0 5.0 0.00 0.00 0.00 20 1010.8
20260508223140 85 303 3.0 6.0 0.00 0.00 0.00 20 1010.9
20260508222637 85 256 3.0 6.0 0.00 0.00 0.00 20 1010.8
20260508222134 84 253 4.0 9.0 0.00 0.00 0.00 21 1010.7
20260508221630 85 251 4.0 8.0 0.00 0.00 0.00 22 1010.8
20260508221126 85 272 2.0 8.0 0.00 0.00 0.00 22 1010.9
20260508220623 86 263 2.0 5.0 0.00 0.00 0.00 18 1011.1
20260508220119 86 175 2.0 5.0 0.00 0.00 0.00 19 1011.4
20260508215616 86 284 3.0 8.0 0.00 0.00 0.00 19 1011.1
20260508215113 87 295 3.0 4.0 0.00 0.00 0.00 17 1011.0
20260508214605 85 288 2.0 3.0 0.00 0.00 0.00 18 1011.1
20260508214101 85 278 4.0 7.0 0.00 0.00 0.00 18 1011.5
20260508213558 86 271 4.0 6.0 0.00 0.00 0.00 19 1011.2
20260508213054 86 288 5.0 5.0 0.00 0.00 0.00 21 1011.5
20260508212551 85 256 4.0 9.0 0.00 0.00 0.00 22 1011.4
20260508212048 84 233 3.0 7.0 0.00 0.00 0.00 21 1011.5
20260508211543 86 243 4.0 5.0 0.00 0.00 0.00 19 1011.6
20260508211040 84 287 2.0 6.0 0.00 0.00 0.00 20 1011.4
20260508210536 84 332 4.0 9.0 0.00 0.00 0.00 20 1011.6
20260508210034 86 266 3.0 4.0 0.00 0.00 0.00 20 1011.6
20260508205530 82 283 5.0 11.0 0.00 0.00 0.00 21 1011.5
20260508205026 84 184 3.0 6.0 0.00 0.00 0.00 21 1011.5
20260508204524 84 119 9.0 10.0 0.00 0.00 0.00 21 1011.7
20260508204020 86 235 2.0 6.0 0.00 0.00 0.00 22 1011.7
20260508203516 85 247 6.0 6.0 0.00 0.00 0.00 20 1011.6
20260508203012 84 285 4.0 5.0 0.00 0.00 0.00 21 1011.8
20260508202509 83 292 3.0 7.0 0.00 0.00 0.00 20 1012.1
20260508202006 85 288 4.0 4.0 0.00 0.00 0.00 22 1011.8
20260508201503 83 130 1.0 5.0 0.00 0.00 0.00 18 1011.9
20260508200959 85 299 3.0 4.0 0.00 0.00 0.00 19 1011.9
20260508200456 84 245 3.0 6.0 0.00 0.00 0.00 18 1011.9
20260508195951 82 301 3.0 6.0 0.00 0.00 0.00 18 1011.9
20260508195449 82 330 3.0 5.0 0.00 0.00 0.00 17 1012.3
20260508194944 82 330 4.0 7.0 0.00 0.00 0.00 21 1012.4
20260508194442 84 36 3.0 3.0 0.00 0.00 0.00 23 1012.2
20260508193939 82 296 5.0 9.0 0.00 0.00 0.00 25 1012.3
20260508193435 81 164 5.0 9.0 0.00 0.00 0.00 20 1012.1
20260508192932 83 276 2.0 8.0 0.00 0.00 0.00 23 1012.3
20260508192429 83 184 3.0 4.0 0.00 0.00 0.00 23 1012.2
20260508191925 81 253 3.0 8.0 0.00 0.00 0.00 24 1012.4
20260508191422 81 190 4.0 12.0 0.00 0.00 0.00 21 1012.7
20260508190919 82 193 8.0 13.0 0.00 0.00 0.00 21 1012.7
20260508190416 80 159 2.0 10.0 0.00 0.00 0.00 22 1012.7
20260508185912 82 255 3.0 5.0 0.00 0.00 0.00 23 1012.5
20260508185410 81 217 3.0 7.0 0.00 0.00 0.00 23 1012.5
20260508184907 81 197 3.0 9.0 0.00 0.00 0.00 21 1012.9
20260508184404 82 178 4.0 7.0 0.00 0.00 0.00 20 1012.9
20260508183901 80 289 2.0 7.0 0.00 0.00 0.00 22 1012.9
20260508183358 81 282 4.0 11.0 0.00 0.00 0.00 25 1012.8
20260508182848 80 180 9.0 10.0 0.00 0.00 0.00 20 1013.0
20260508182345 79 167 4.0 8.0 0.00 0.00 0.00 22 1013.5
20260508181841 79 176 8.0 10.0 0.00 0.00 0.00 22 1013.5
20260508181338 78 266 2.0 11.0 0.00 0.00 0.00 24 1013.1
20260508180835 79 236 4.0 8.0 0.00 0.00 0.00 24 1013.2
20260508180331 79 321 3.0 7.0 0.00 0.00 0.00 24 1013.1
20260508175827 78 159 1.0 10.0 0.00 0.00 0.00 24 1013.1
20260508175324 79 351 4.0 6.0 0.00 0.00 0.00 22 1013.6
20260508174823 79 233 3.0 7.0 0.00 0.00 0.00 23 1013.5
20260508174320 79 253 3.0 6.0 0.00 0.00 0.00 25 1013.2
20260508173815 78 276 2.0 6.0 0.00 0.00 0.00 25 1013.5
20260508173313 77 244 3.0 9.0 0.00 0.00 0.00 21 1013.5
20260508172809 77 146 7.0 9.0 0.00 0.00 0.00 22 1013.6
20260508172307 77 279 4.0 7.0 0.00 0.00 0.00 24 1013.2
20260508171803 78 309 1.0 6.0 0.00 0.00 0.00 22 1013.4
20260508171259 77 266 3.0 5.0 0.00 0.00 0.00 25 1013.5
20260508170755 77 274 3.0 5.0 0.00 0.00 0.00 23 1013.6
20260508170254 76 288 4.0 6.0 0.00 0.00 0.00 25 1013.5
20260508165750 75 134 1.0 4.0 0.00 0.00 0.00 25 1013.6
20260508165247 74 248 3.0 5.0 0.00 0.00 0.00 28 1013.8
20260508164737 74 311 2.0 4.0 0.00 0.00 0.00 27 1013.5
20260508164234 73 258 3.0 6.0 0.00 0.00 0.00 28 1013.6
20260508163733 73 290 3.0 5.0 0.00 0.00 0.00 27 1013.6
20260508163230 72 260 2.0 4.0 0.00 0.00 0.00 28 1013.9
20260508162725 72 303 4.0 5.0 0.00 0.00 0.00 28 1013.6
20260508162222 71 285 2.0 4.0 0.00 0.00 0.00 30 1013.7
20260508161719 71 291 2.0 3.0 0.00 0.00 0.00 30 1013.8
20260508161217 71 308 2.0 3.0 0.00 0.00 0.00 28 1013.7
20260508160714 69 302 2.0 3.0 0.00 0.00 0.00 30 1013.8
20260508160213 69 269 0.0 3.0 0.00 0.00 0.00 29 1013.7
20260508155709 68 244 2.0 3.0 0.00 0.00 0.00 29 1013.9
20260508155206 68 234 2.0 3.0 0.00 0.00 0.00 28 1013.9
20260508154703 67 241 2.0 2.0 0.00 0.00 0.00 31 1014.1
20260508154200 66 16 2.0 2.0 0.00 0.00 0.00 32 1013.8
20260508153656 65 310 2.0 2.0 0.00 0.00 0.00 36 1013.9
20260508153154 65 276 0.0 3.0 0.00 0.00 0.00 36 1013.8
20260508152650 65 275 0.0 2.0 0.00 0.00 0.00 38 1013.8
20260508152146 64 278 1.0 2.0 0.00 0.00 0.00 39 1013.9
20260508151642 63 180 0.0 2.0 0.00 0.00 0.00 40 1013.8
20260508151139 61 325 0.0 2.0 0.00 0.00 0.00 47 1013.8
20260508150636 61 343 0.0 2.0 0.00 0.00 0.00 48 1014.1
20260508150133 60 228 0.0 1.0 0.00 0.00 0.00 43 1013.8
20260508145629 59 322 0.0 1.0 0.00 0.00 0.00 44 1014.1
20260508145125 60 53 0.0 2.0 0.00 0.00 0.00 44 1013.9
20260508144623 56 214 0.0 2.0 0.00 0.00 0.00 46 1013.8
20260508144120 56 27 2.0 2.0 0.00 0.00 0.00 48 1014.1
20260508143618 55 127 1.0 3.0 0.00 0.00 0.00 51 1014.1
20260508143114 52 49 0.0 2.0 0.00 0.00 0.00 55 1013.8
20260508142611 50 206 1.0 2.0 0.00 0.00 0.00 60 1013.9
20260508142108 50 316 0.0 0.0 0.00 0.00 0.00 58 1013.8
20260508141604 49 138 0.0 2.0 0.00 0.00 0.00 55 1013.6
20260508141102 47 99 2.0 3.0 0.00 0.00 0.00 57 1013.7
20260508140559 46 163 1.0 2.0 0.00 0.00 0.00 58 1013.7
20260508140055 44 191 2.0 2.0 0.00 0.00 0.00 65 1013.7
20260508135545 43 284 0.0 1.0 0.00 0.00 0.00 68 1013.7
20260508135042 43 124 0.0 0.0 0.00 0.00 0.00 65 1013.5
20260508134538 43 170 0.0 2.0 0.00 0.00 0.00 61 1013.5
20260508134036 42 44 0.0 2.0 0.00 0.00 0.00 65 1013.6
20260508133532 39 114 2.0 3.0 0.00 0.00 0.00 67 1013.5
20260508133030 38 82 2.0 3.0 0.00 0.00 0.00 70 1013.4
20260508132528 37 247 3.0 3.0 0.00 0.00 0.00 70 1013.4
20260508132024 36 163 2.0 3.0 0.00 0.00 0.00 73 1013.5
20260508131519 36 134 2.0 3.0 0.00 0.00 0.00 73 1013.1
20260508131016 36 289 1.0 1.0 0.00 0.00 0.00 74 1012.9
20260508130514 36 190 2.0 2.0 0.00 0.00 0.00 79 1013.0
20260508130009 35 134 0.0 2.0 0.00 0.00 0.00 78 1012.9
20260508125505 35 251 2.0 3.0 0.00 0.00 0.00 78 1012.9
20260508125003 35 203 0.0 2.0 0.00 0.00 0.00 77 1012.8
20260508124501 35 211 2.0 3.0 0.00 0.00 0.00 77 1012.7
20260508123958 35 151 2.0 2.0 0.00 0.00 0.00 75 1012.8
20260508123456 36 168 2.0 2.0 0.00 0.00 0.00 73 1013.0
20260508122952 36 258 1.0 4.0 0.00 0.00 0.00 75 1012.8
20260508122450 36 180 2.0 2.0 0.00 0.00 0.00 75 1013.0
20260508121946 36 147 0.0 2.0 0.00 0.00 0.00 73 1013.0
20260508121445 36 197 2.0 2.0 0.00 0.00 0.00 73 1012.8
20260508120942 36 184 0.0 3.0 0.00 0.00 0.00 74 1012.9
20260508120439 36 218 0.0 3.0 0.00 0.00 0.00 77 1012.8
20260508115937 36 190 0.0 2.0 0.00 0.00 0.00 76 1012.5
20260508115435 37 228 1.0 2.0 0.00 0.00 0.00 74 1012.8
20260508114931 37 101 4.0 6.0 0.00 0.00 0.00 68 1012.5
20260508114428 37 135 1.0 4.0 0.00 0.00 0.00 74 1012.7
20260508113924 37 211 1.0 2.0 0.00 0.00 0.00 74 1012.9
20260508113423 37 280 0.0 2.0 0.00 0.00 0.00 76 1012.7
20260508112919 38 228 2.0 2.0 0.00 0.00 0.00 73 1012.7
20260508112416 38 144 2.0 3.0 0.00 0.00 0.00 71 1012.8
20260508111912 38 164 0.0 2.0 0.00 0.00 0.00 74 1012.8
20260508111409 39 193 0.0 2.0 0.00 0.00 0.00 69 1012.8
20260508110907 38 125 0.0 2.0 0.00 0.00 0.00 70 1012.8
20260508110404 38 114 1.0 1.0 0.00 0.00 0.00 72 1012.8
20260508105858 38 140 3.0 3.0 0.00 0.00 0.00 71 1012.8
20260508105355 39 193 0.0 1.0 0.00 0.00 0.00 68 1013.0
20260508104852 39 169 0.0 0.0 0.00 0.00 0.00 70 1012.9
20260508104349 39 130 2.0 3.0 0.00 0.00 0.00 69 1012.8
20260508103847 39 113 0.0 3.0 0.00 0.00 0.00 71 1012.9
20260508103343 39 136 0.0 1.0 0.00 0.00 0.00 70 1013.0
20260508102841 39 141 0.0 1.0 0.00 0.00 0.00 71 1012.7
20260508102339 40 166 0.0 1.0 0.00 0.00 0.00 68 1012.7
20260508101836 40 166 1.0 2.0 0.00 0.00 0.00 63 1012.9
20260508101333 41 133 0.0 1.0 0.00 0.00 0.00 62 1012.8
20260508100831 41 60 0.0 0.0 0.00 0.00 0.00 63 1012.9
20260508100329 41 166 0.0 2.0 0.00 0.00 0.00 61 1012.8
20260508095824 41 124 0.0 1.0 0.00 0.00 0.00 62 1012.8
20260508095322 41 162 0.0 1.0 0.00 0.00 0.00 61 1012.8
20260508094818 42 55 0.0 0.0 0.00 0.00 0.00 62 1012.9
20260508094310 42 250 0.0 1.0 0.00 0.00 0.00 62 1012.5
20260508093807 42 124 0.0 1.0 0.00 0.00 0.00 59 1012.8
20260508093305 42 228 0.0 2.0 0.00 0.00 0.00 60 1012.8
20260508092802 43 224 0.0 2.0 0.00 0.00 0.00 57 1012.9
20260508092300 44 127 0.0 5.0 0.00 0.00 0.00 58 1012.8
20260508091758 44 142 1.0 1.0 0.00 0.00 0.00 55 1012.8
20260508091254 45 120 1.0 4.0 0.00 0.00 0.00 52 1012.7
20260508090752 45 64 0.0 4.0 0.00 0.00 0.00 54 1012.9
20260508090250 46 71 2.0 4.0 0.00 0.00 0.00 50 1012.9
20260508085745 45 47 2.0 4.0 0.00 0.00 0.00 52 1013.0
20260508085242 44 326 1.0 2.0 0.00 0.00 0.00 53 1013.1
20260508084737 44 76 0.0 0.0 0.00 0.00 0.00 53 1012.9
20260508084235 45 218 0.0 0.0 0.00 0.00 0.00 54 1013.0
20260508083732 47 213 1.0 3.0 0.00 0.00 0.00 51 1012.8
20260508083230 48 53 2.0 4.0 0.00 0.00 0.00 44 1012.9
20260508082725 49 60 4.0 6.0 0.00 0.00 0.00 44 1013.0
20260508082223 49 73 5.0 9.0 0.00 0.00 0.00 44 1013.0
20260508081720 49 74 6.0 8.0 0.00 0.00 0.00 43 1013.0
20260508081216 49 66 5.0 9.0 0.00 0.00 0.00 44 1013.2
20260508080714 49 59 6.0 9.0 0.00 0.00 0.00 43 1013.0
20260508080212 50 69 4.0 6.0 0.00 0.00 0.00 43 1012.9
20260508075708 50 56 4.0 7.0 0.00 0.00 0.00 42 1013.0
20260508075205 50 66 5.0 8.0 0.00 0.00 0.00 42 1013.0
20260508074702 50 67 5.0 8.0 0.00 0.00 0.00 42 1013.0
20260508074200 50 66 4.0 10.0 0.00 0.00 0.00 42 1013.0
20260508073656 50 58 7.0 7.0 0.00 0.00 0.00 42 1013.1
20260508073155 50 54 8.0 9.0 0.00 0.00 0.00 41 1013.0
20260508072650 50 57 6.0 7.0 0.00 0.00 0.00 41 1013.0
20260508072147 50 61 6.0 7.0 0.00 0.00 0.00 42 1013.1
20260508071645 51 80 4.0 9.0 0.00 0.00 0.00 41 1013.0
20260508071143 51 77 5.0 8.0 0.00 0.00 0.00 41 1013.0
20260508070640 51 69 4.0 9.0 0.00 0.00 0.00 41 1013.2
20260508070139 51 84 5.0 10.0 0.00 0.00 0.00 41 1013.0
20260508065635 51 61 7.0 12.0 0.00 0.00 0.00 41 1013.1
20260508065133 51 64 6.0 10.0 0.00 0.00 0.00 41 1013.0
20260508064631 52 50 6.0 10.0 0.00 0.00 0.00 40 1013.1
20260508064129 52 87 4.0 11.0 0.00 0.00 0.00 40 1013.0
20260508063626 52 45 5.0 8.0 0.00 0.00 0.00 39 1012.7
20260508063124 52 66 6.0 9.0 0.00 0.00 0.00 40 1013.0
20260508062621 52 59 8.0 9.0 0.00 0.00 0.00 39 1013.0
20260508062118 53 68 4.0 9.0 0.00 0.00 0.00 39 1012.8
20260508061615 53 55 6.0 8.0 0.00 0.00 0.00 38 1013.0
20260508061112 53 64 5.0 7.0 0.00 0.00 0.00 39 1012.9
20260508060604 53 62 3.0 7.0 0.00 0.00 0.00 39 1013.0
20260508055556 53 81 2.0 5.0 0.00 0.00 0.00 39 1013.0
20260508055053 53 68 3.0 6.0 0.00 0.00 0.00 39 1012.5
20260508054549 52 71 2.0 3.0 0.00 0.00 0.00 43 1012.7
20260508054047 53 54 2.0 4.0 0.00 0.00 0.00 41 1012.9
20260508053543 53 102 3.0 3.0 0.00 0.00 0.00 41 1012.9
20260508053042 53 105 2.0 4.0 0.00 0.00 0.00 42 1012.9
20260508052539 52 94 2.0 4.0 0.00 0.00 0.00 44 1012.9
20260508052035 52 39 2.0 2.0 0.00 0.00 0.00 45 1012.8